Regional Weather Roundup
Issued by NWS Northern Indiana

Home | Current Version | Previous Version | Graphics & Text | Print | Product List | Glossary On
Versions: 1 2 3 4 5 6 7 8 9 10 11 12 13 14 15 16 17 18 19 20 21 22 23 24 25 26 27 28 29 30 31 32 33 34 35 36 37 38 39 40 41 42 43 44 45 46 47 48 49 50
000
ASUS43 KIWX 042000
RWRIWX

KIWX WEATHER ROUNDUP
NATIONAL WEATHER SERVICE NORTHERN INDIANA
300 PM EST SUN DEC 04 2016

NOTE: "FAIR" INDICATES FEW OR NO CLOUDS BELOW 12,000 FEET WITH NO
SIGNIFICANT WEATHER AND/OR OBSTRUCTIONS TO VISIBILITY.

* THESE STATIONS ARE NOT UNDER NWS QUALITY CONTROL. THEY ALSO MAY NOT
  REPORT WEATHER SUCH AS PRECIPITATION OR FOG.

INZ001>027-042100-
NORTHERN INDIANA

CITY           SKY/WX    TMP DP  RH WIND       PRES   REMARKS
SOUTH BEND     SNOW      32  31  96 E6        29.97F VSB 1/2 WCI  26
GOSHEN         LGT SNOW  34  30  85 E7        29.97F VSB 1   WCI  28
MONTICELLO*    LGT SNOW  33  30  89 E6        29.92F WCI  28
WARSAW*        LGT SNOW  32  30  93 E5        29.96F WCI  27
ANGOLA*        CLOUDY    36  30  80 E9        29.99F
FORT WAYNE     LGT RAIN  38  32  79 E10       29.98F
PERU/GRISSOM   LGT SNOW  34  33  99 NE10      29.92F FOG     WCI  26

$$
INZ028>050-042100-
CENTRAL INDIANA

CITY           SKY/WX    TMP DP  RH WIND       PRES   REMARKS
LAFAYETTE      RAIN      35  35 100 E7        29.93S FOG     WCI  29
KOKOMO*        RAIN      36  34  92 E13       29.93  FOG
MUNCIE*        LGT RAIN  39  33  79 E10       29.92F
INDIANAPOLIS   LGT RAIN  38  36  92 SE8       29.90F VSB 1

$$
MIZ043>046-050>051-056>058-064>065-071>073-077>080-042100-
SOUTHWEST LOWER MICHIGAN

CITY           SKY/WX    TMP DP  RH WIND       PRES   REMARKS
BATTLE CREEK   SNOW      33  32  96 E7        30.01F VSB 1/2 WCI  27
BENTON HARBOR  SNOW      33  31  92 E5        29.97F VSB 1/4 WCI  29
COLDWATER*     CLOUDY    37  29  75 E6        30.00F
HILLSDALE*     CLOUDY    34  30  86 E6        30.01F WCI  29
HOLLAND        LGT SNOW  33  31  92 E8        29.98F VSB 3/4 WCI  26
GRAND RAPIDS   SNOW      33  30  88 SE10      30.01F VSB 1/2 WCI  25
KALAMAZOO      SNOW      33  30  88 E6        30.00F VSB 1/2 WCI  28
STURGIS*       LGT SNOW  35  31  88 E7        29.98F WCI  29
THREE RIVERS*  LGT SNOW  33  32  95 E6        29.99F VSB 3/4 WCI  28

$$
OHZ001>008-015>018-024>025-042100-
NORTHWEST OHIO

CITY           SKY/WX    TMP DP  RH WIND       PRES   REMARKS
DEFIANCE       CLOUDY    40  30  67 SE8       30.01F
FINDLAY        CLOUDY    41  28  60 E9        29.99F
TOLEDO EXPRESS CLOUDY    38  29  70 E6        30.03F
TOLEDO METCALF CLOUDY    39  29  67 SE9       30.04F
LIMA           CLOUDY    40  30  67 SE15      29.97F

$$
AND FOR LAKE MICHIGAN COASTAL AND OPEN LAKE BUOY OBSERVATIONS

STATION/POSITION TEMP    WIND        PRES    VSBY  WAVE
                 AIR SEA DIR/SP/G                  HT/PER
                 (F)     (DEG/KT/KT) (MB)    (MI)  (FT/S)
CALUMET HARBOR    33     130/  2/  4 1014.0F
BURNS HARBOR      33      90/  7/  9 1014.6F
SAINT JOSEPH      33      70/  1/  5 1016.6F
SOUTH LAKE BUOY   35 48  130/ 12/ 14 1016.2          2/ 4

$$
&&




USA.gov is the U.S. government's official web portal to all federal, state and local government web resources and services.